カタログに戻る

IRIDIUM 33 DEB

運用中PO
NORAD 34833·DEBRIS·🇺🇸 United States

打ち上げ Sep 14, 1997 から Baikonur Cosmodrome

Loading…

次のパス (今後24時間)

TLE

最新Source: Space-Track

元期: Sep 14, 2026, 07:44 UTC

1 34833U 97051MH  26257.32257358  .00001477  00000-0  34585-3 0  9997
2 34833  86.3892 292.0836 0016935 247.5010 235.8060 14.53879357917173

AllMySatでIRIDIUM 33 DEBをリアルタイム追跡

Download on the App Store